Messwerte Horta/Azoren

Temperatur

Temperatur
°C
1594278000 7.00 7.00 21
1594281600 8.00 8.00 21
1594285200 9.00 9.00 21
1594288800 10.00 10.00 22
1594292400 11.00 11.00 22
1594296000 12.00 12.00 23
1594299600 13.00 13.00 23
1594303200 14.00 14.00 23
1594306800 15.00 15.00 23
1594310400 16.00 16.00 23
1594314000 17.00 17.00 23
1594317600 18.00 18.00 23
1594321200 19.00 19.00 23
1594324800 20.00 20.00 22
1594328400 21.00 21.00
1594332000 22.00 22.00 21
1594335600 23.00 23.00 20
1594339200 0.00 0.00
1594342800 1.00 1.00
1594346400 2.00 2.00
1594350000 3.00 3.00
1594353600 4.00 4.00
1594357200 5.00 5.00
1594360800 6.00 6.00 21

Aktuellste Messwerte

Wettercharakter
Wetter: wechselnd bewölkt
Temperatur
21 °C
Feuchtigkeit
70 %
Wind
10 km/hWindrichtung: Nordost
Luftdruck
1025 hPa
Messzeit: 10. Juli 2020, 6.00Datenquelle: METAR

Weitere Messstationen in der Nähe

Messstation Temperatur Entfernung
Lajes/Terceira 20 °C 143 km
Flores/Azoren - 232 km
Ponta Delgada 18 °C 278 km
Vila do Porto/Santa Maria 18 °C 356 km

Wind

Windrichtung Böen Mittelwind
° km/h km/h
1594278000 7.00 6.00 - 7.00 150° 15
1594281600 8.00 7.00 - 8.00 150° 15
1594285200 9.00 8.00 - 9.00 100° 5
1594288800 10.00 9.00 - 10.00 130° 15
1594292400 11.00 10.00 - 11.00 120° 10
1594296000 12.00 11.00 - 12.00 150° 10
1594299600 13.00 12.00 - 13.00 160° 10
1594303200 14.00 13.00 - 14.00 170° 5
1594306800 15.00 14.00 - 15.00 170° 10
1594310400 16.00 15.00 - 16.00 170° 10
1594314000 17.00 16.00 - 17.00 160° 5
1594317600 18.00 17.00 - 18.00 200° 5
1594321200 19.00 18.00 - 19.00 180° 5
1594324800 20.00 19.00 - 20.00 240° 5
1594328400 21.00 20.00 - 21.00
1594332000 22.00 21.00 - 22.00 5
1594335600 23.00 22.00 - 23.00 20° 10
1594339200 0.00 23.00 - 0.00
1594342800 1.00 0.00 - 1.00
1594346400 2.00 1.00 - 2.00
1594350000 3.00 2.00 - 3.00
1594353600 4.00 3.00 - 4.00
1594357200 5.00 4.00 - 5.00
1594360800 6.00 5.00 - 6.00 50° 10

Ihre Wetterstation

Fehlt Ihre Wetterstation auf unserem Portal?

Schreiben Sie an network@meteonews.ch

Klima

Wann ist es am wärmsten? Wann regnet es am wenigsten? Unsere Klimadaten geben Auskunft.